Flag for Cambodia Weather past 2 weeks in Phnom Penh, Cambodia

Now
95 °F

Passing clouds.


Feels Like: 100 °F
Forecast: 76 / 96 °F
Wind: 2 mph from North

Location: Phnom-Penh / Pochentong

Current Time: Mar 27, 2015 at 3:59:24 PM

Latest Report: Mar 27, 2015 at 3:30 PM


Visibility: N/A

Pressure: 29.80 "Hg

Humidity: 41%

Dew point: 68 °F

Location of Phnom PenhLocation

Historic Weather in Phnom Penh — Graph

°F

Phnom Penh temperature yesterday

Maximum temperature yesterday: 95 °F (at 2:00 PM)
Minimum temperature yesterday: 81 °F (at 6:00 AM)
Average temperature yesterday: 89 °F

Past Weeks' High & Low Weather Summary

 TemperatureHumidityPressure
High100 °F (Mar 19, 3:00 PM)89% (Mar 19, 7:00 AM)30.01 "Hg (Mar 19, 7:00 AM)
Low75 °F (Mar 17, 6:00 AM)15% (Mar 14, 7:00 PM)29.68 "Hg (Mar 18, 4:00 PM)
Average88 °F58%29.85 "Hg
* Reported Mar 12 2:00 PM — Mar 27 2:30 PM, Phnom Penh, Weather by CustomWeather, © 2015

Note: Actual official high and low records may vary slightly from our data, if they occured in-between our weather recording intervals... More about our weather records

Advertising

Phnom Penh weather history for previous 24 hours

 ConditionsComfort  
Time TempWeatherWind HumidityBarometerVisibility
2:30 PM
Fri, Mar 27
95 °FScattered clouds.3 mph44%29.83 "HgN/A
2:00 PM93 °FScattered clouds.2 mph49%29.86 "HgN/A
1:30 PM93 °FScattered clouds.5 mph47%29.86 "HgN/A
1:00 PM91 °FScattered clouds.2 mph52%29.89 "HgN/A
12:30 PM91 °FScattered clouds.5 mph52%29.89 "HgN/A
12:00 PM90 °FScattered clouds.2 mph55%29.92 "HgN/A
11:30 AM90 °FScattered clouds.5 mph55%29.92 "HgN/A
10:30 AM88 °FScattered clouds.3 mph59%29.95 "HgN/A
10:00 AM86 °FScattered clouds.2 mph66%29.98 "HgN/A
9:30 AM86 °FScattered clouds.1 mph66%29.98 "HgN/A
9:00 AM84 °FBroken clouds.1 mph70%29.98 "HgN/A
8:30 AM82 °FBroken clouds.1 mph74%29.98 "Hg6 mi
8:00 AM82 °FBroken clouds.3 mph74%29.95 "Hg6 mi
7:30 AM82 °FPassing clouds.No wind70%29.95 "Hg6 mi
7:00 AM82 °FPassing clouds.1 mph70%29.95 "Hg6 mi
6:30 AM81 °FPassing clouds.2 mph74%29.92 "HgN/A
6:00 AM81 °FWarm.1 mph74%29.92 "HgN/A
1:00 AM82 °FClear.5 mph70%29.92 "Hg6 mi
12:30 AM84 °FPassing clouds.6 mph66%29.92 "Hg6 mi
12:00 AM84 °FPassing clouds.2 mph66%29.95 "Hg6 mi
11:30 PM
Thu, Mar 26
84 °FPassing clouds.8 mph66%29.92 "Hg6 mi
11:00 PM84 °FPassing clouds.8 mph66%29.92 "Hg6 mi
10:30 PM84 °FPassing clouds.9 mph66%29.92 "Hg6 mi
10:00 PM86 °FPassing clouds.9 mph62%29.92 "Hg6 mi
9:30 PM86 °FPassing clouds.10 mph62%29.92 "Hg6 mi
9:00 PM88 °FPassing clouds.9 mph59%29.89 "Hg6 mi
8:30 PM90 °FPassing clouds.6 mph52%29.89 "Hg6 mi
8:00 PM90 °FPassing clouds.9 mph49%29.86 "Hg6 mi
7:30 PM90 °FPassing clouds.7 mph49%29.86 "Hg6 mi
7:00 PM91 °FPassing clouds.5 mph44%29.83 "Hg6 mi
6:30 PM91 °FPassing clouds.6 mph44%29.83 "Hg6 mi
6:00 PM95 °FPassing clouds.2 mph36%29.83 "Hg6 mi
5:30 PM95 °FPassing clouds.1 mph39%29.83 "HgN/A
5:00 PM95 °FPassing clouds.3 mph39%29.83 "HgN/A
4:30 PM95 °FPassing clouds.5 mph39%29.83 "HgN/A
4:00 PM95 °FPassing clouds.2 mph41%29.83 "HgN/A
3:30 PM95 °FPassing clouds.5 mph41%29.83 "HgN/A
3:00 PM95 °FPassing clouds.3 mph44%29.83 "HgN/A
Weather by CustomWeather, © 2015

See weather overviewHow to use our weather pages